Regional Weather Roundup
Issued by NWS

Home | Current Version | Previous Version | Text Only | Print | Product List | Glossary Off
Versions: 1 2 3 4 5 6 7 8 9 10 11 12 13 14 15 16 17 18 19 20 21 22 23 24 25 26 27

000
ASUS45 KBOU 161206
RWRCO

WEATHER ROUNDUP FOR COLORADO
NATIONAL WEATHER SERVICE DENVER/BOULDER CO
600 AM MDT WED APR 16 2014

NOTE: "FAIR" INDICATES FEW OR NO CLOUDS BELOW 12000 FEET WITH NO
SIGNIFICANT WEATHER AND/OR OBSTRUCTIONS TO VISIBILITY.

COZ001>005-013-030-031-161300-
...NORTHWEST COLORADO...

CITY           SKY/WX    TMP DP  RH WIND       PRES   REMARKS
CRAIG          MOCLDY    31  18  58 S3        29.96R
HAYDEN         MOCLDY    30  18  59 W6        29.97R WCI  24
MEEKER         CLOUDY    36  20  52 NE3       29.95R
MOUNT WERNER   NOT AVBL
STEAMBOAT SPGS MOCLDY    32  17  52 CALM      29.94R
WALDEN         PTCLDY    25  16  68 W10       29.90R WCI  15
$$

COZ006>008-011-161300-
...WEST CENTRAL VALLEYS...

CITY           SKY/WX    TMP DP  RH WIND       PRES   REMARKS
GRAND JUNCTION PTCLDY    42  25  50 N8        29.87R
MONTROSE       CLOUDY    39  27  62 SE5       29.89R
EAGLE          CLOUDY    41  21  45 NE7       29.94R
RIFLE          CLOUDY    45  13  27 MISG      29.92R
DELTA          PTCLDY    38  27  64 NE3       29.86R
NUCLA            N/A     36  19  51 E9        29.91S
$$

COZ017>023-064>068-161300-
...SOUTHWEST COLORADO...

CITY           SKY/WX    TMP DP  RH WIND       PRES   REMARKS
DURANGO        CLEAR     28   6  39 NE6       29.89F WCI  22
CORTEZ         CLEAR     27  16  63 NE7       29.89R WCI  19
PAGOSA SPRINGS CLEAR     27   6  40 CALM      29.93R
TELLURIDE      CLOUDY    39   9  28 CALM      29.96R
WOLF CREEK PAS CLEAR     23   0  36 SW23G30   29.99S WCI   7
$$

COZ009-010-012-014-032>034-037-058>063-161300-
...CENTRAL COLORADO...

CITY           SKY/WX    TMP DP  RH WIND       PRES   REMARKS
ASPEN          CLOUDY    39  18  42 NW12      29.88R
BUENA VISTA    MOCLDY    41  12  30 W16G23    29.85R
COPPER MTN     SNOW      25  19  80 W17G30    29.93R VSB 1/2 WCI  11
BERTHOUD PASS  HVY SNOW  10   1  67 MISG      29.82S VSB<1/4
COTTONWOOD PAS CLOUDY    37   9  30 N9G26     29.87R
GUNNISON       MOCLDY    27  19  74 NE3       29.92R
KREMMLING      CLOUDY    32  18  55 NW6       29.94R WCI  26
LEADVILLE      CLOUDY    28  19  69 S6        29.89F WCI  22
MONARCH PASS   CLOUDY    25   9  50 W33G43    30.05R WCI   7
SALIDA         MOCLDY    42  10  27 CALM      29.90R
SUNLIGHT       CLOUDY    27  18  69 W5        29.97R WCI  21
WILKERSON PASS PTCLDY    25  16  68 W13G28    29.91R WCI  13
$$

COZ069>075-161300-
...SAN LUIS VALLEY/SANGRE DE CRISTO MOUNTAINS...

CITY           SKY/WX    TMP DP  RH WIND       PRES   REMARKS
ALAMOSA        CLEAR     30   9  41 VRB3      29.86S
LA VETA PASS   NOT AVBL
SAGUACHE       PTCLDY    25  10  54 W9        29.88S WCI  15
$$

COZ035-036-038>040-161300-
...NORTHERN COLORADO FRONT RANGE...

CITY           SKY/WX    TMP DP  RH WIND       PRES   REMARKS
DENVER INTL AP PTCLDY    39  24  55 NE7       29.79R
DMNS CITY PARK   N/A     45  19  35 NW8G17    29.80R
AURORA         PTCLDY    37  28  70 E5        29.81R
FRONT RANGE AP NOT AVBL
ERIE MUNI ARPT PTCLDY    43  17  35 W6        29.79R
BOULDER MUN AP PTCLDY    45  14  29 CALM      29.79S
CENTENNIAL     PTCLDY    36  27  69 CALM      29.80R
BROOMFIELD     PTCLDY    45  18  33 W17G26    29.81R
FORT COLLINS   CLEAR     37  23  56 E7        29.82R
LONGMONT       CLEAR     39  28  63 NE6       29.81R
$$

COZ041-046-047-076>085-087-088-161300-
...PIKES PEAK/PALMER DIVIDE AND SOUTHERN FOOTHILLS...

CITY           SKY/WX    TMP DP  RH WIND       PRES   REMARKS
COLO. SPRINGS  PTCLDY    47  14  26 N7        29.78R
A. F. ACADEMY  CLEAR     38  20  48 NE8       29.79R
ELLICOTT       NOT AVBL
FALCON         CLEAR     36  23  60 N13       29.80R
FORT CARSON    PTCLDY    40  15  36 NW7       29.75R
LIMON          CLEAR     36  28  73 N12       29.78R
MONUMENT HILL  CLEAR     28  25  86 CALM      29.80R
TRINIDAD       PTCLDY    37  14  38 W9        29.77R
$$

COZ042>045-048>051-090-091-161300-
...NORTHEAST COLORADO...

CITY           SKY/WX    TMP DP  RH WIND       PRES   REMARKS
GREELEY ARPT   PTCLDY    37  25  60 N20       29.81R
AKRON          CLOUDY    38  31  76 N21       29.76R
BURLINGTON     PTCLDY    43  30  60 NW20      29.73R
WRAY           MOCLDY    44  33  66 NW24G33   29.70R
STERLING       PTCLDY    43  34  70 N23G33    29.75R
HOLYOKE        PTCLDY    43  34  70 NW25G38   29.71R
FORT MORGAN    MOCLDY    40  30  66 NW22G30   29.78R
$$

COZ086-089-092>099-161300-
...SOUTHEAST COLORADO...

CITY           SKY/WX    TMP DP  RH WIND       PRES   REMARKS
PUEBLO         PTCLDY    36  26  67 W7        29.72R
LA JUNTA       MOCLDY    42  24  49 N16G26    29.73R
LAMAR          MOCLDY    38  23  55 CALM      29.73R
SPRINGFIELD    NOT AVBL
$$



USA.gov is the U.S. government's official web portal to all federal, state and local government web resources and services.